Wind_Speed
27 25 23 21 20 19 18 16 14 12 11 10 10 10 10 10 9 8 8 8 8 9 8 8 8 7 7 8 9 9 9 10 9 9 8 7 6 5 5 4 4 4 4 3
28 25 23 24 23 23 22 19 15 13 13 13 12 12 11 11 9 8 9 9 8 8 8 7 7 7 7 7 8 9 9 9 9 9 8 7 6 6 5 5 4 4 4 4
28 25 26 26 25 25 23 20 16 14 13 15 15 14 13 11 10 10 10 10 9 8 7 6 6 6 6 7 7 8 9 9 9 8 8 8 7 6 5 4 4 4 4 5
30 30 29 28 27 26 24 21 19 18 16 15 16 16 15 13 12 12 11 10 8 9 7 6 5 5 6 6 7 7 8 9 9 9 8 8 7 7 5 5 5 4 5 5
32 31 31 30 27 26 25 23 22 22 20 18 18 19 17 15 12 11 9 9 9 9 8 7 6 5 5 6 6 7 7 8 9 8 8 9 8 6 6 6 6 5 5 4
33 33 32 30 28 27 26 26 25 24 23 21 19 20 18 17 13 11 9 9 9 9 9 8 8 6 5 6 6 7 8 8 8 8 8 8 8 7 6 6 6 6 5 5
34 34 33 31 30 29 29 28 27 27 26 22 20 21 19 17 15 13 11 10 10 10 10 9 8 7 6 6 6 6 8 8 9 9 8 9 8 8 7 7 7 6 5 5
35 34 33 32 31 30 29 29 29 28 25 21 20 20 18 17 16 15 12 10 11 11 11 10 9 8 7 6 6 7 9 9 9 9 9 9 8 8 8 8 8 6 5 5
34 33 32 31 31 30 29 29 29 28 25 23 20 18 17 16 15 13 12 11 11 11 11 10 10 9 9 8 7 8 10 10 10 10 10 9 9 9 9 9 8 8 7 6
34 33 32 31 31 31 29 29 30 29 26 24 21 18 17 15 14 13 13 12 12 12 11 10 10 10 10 10 9 9 11 11 12 11 10 10 10 10 10 9 9 9 8 7
34 33 32 33 32 30 30 31 31 29 28 25 22 20 18 17 14 14 14 14 13 11 11 11 11 11 11 12 11 11 11 12 12 11 11 11 10 11 11 10 10 9 9 9
34 33 33 32 30 29 29 30 30 31 29 27 25 22 19 17 16 16 16 15 14 13 13 13 13 13 13 13 12 12 11 11 11 11 11 11 10 10 10 11 10 10 10 10
34 34 33 33 32 31 31 31 31 31 30 29 28 25 22 19 18 17 17 17 15 14 14 14 14 14 13 12 12 12 12 11 12 11 11 11 11 10 10 11 11 11 11 11
34 33 33 33 31 29 29 30 31 32 32 31 29 26 24 22 20 19 18 17 16 14 15 14 14 14 13 13 12 11 12 12 11 11 11 11 11 10 10 12 12 12 12 12
35 34 33 32 30 29 28 28 29 31 31 30 28 27 25 23 22 21 19 18 17 15 15 14 14 13 14 13 12 12 11 12 12 11 11 11 10 10 11 12 12 13 12 12
37 35 33 32 31 30 29 28 28 29 29 29 28 27 25 23 23 21 20 19 18 17 16 15 15 15 14 13 12 12 11 11 11 11 11 11 10 11 12 13 13 13 13 12
37 36 34 33 32 31 30 28 28 29 30 29 29 27 26 25 24 22 21 20 18 17 17 16 16 15 15 14 13 12 12 13 12 12 12 12 12 12 12 13 14 13 13 14
35 36 35 34 33 33 29 27 28 29 29 29 28 28 27 26 25 24 23 22 22 20 19 18 18 17 16 16 15 14 14 14 14 14 14 13 13 13 13 14 15 14 14 14
34 35 36 36 36 34 30 28 29 29 28 28 28 27 28 27 27 27 25 24 22 21 20 19 19 18 18 17 16 16 15 15 15 15 15 14 14 14 14 15 16 15 15 15
34 35 36 37 38 37 33 31 29 30 30 29 28 28 28 28 28 26 25 25 23 22 21 20 19 18 18 17 17 17 16 16 16 15 15 16 16 16 16 17 17 17 17 17
33 35 36 38 38 38 36 34 32 33 31 29 29 28 28 28 27 26 25 25 22 21 21 19 18 18 18 18 18 17 17 16 16 16 16 17 17 17 18 18 18 18 18 18
31 34 36 38 38 37 36 36 35 33 30 29 29 29 29 29 28 27 26 24 22 22 20 19 18 18 18 18 18 17 17 17 17 17 17 18 18 19 19 19 19 19 20 20
33 33 34 36 37 36 35 34 34 34 32 30 31 31 31 30 29 28 27 25 23 22 21 20 20 19 19 18 18 17 17 17 17 17 18 18 19 19 18 19 19 20 21 21
32 33 34 35 36 35 35 34 34 33 32 31 31 30 30 29 29 28 27 26 24 23 22 21 20 19 19 18 18 18 17 17 17 17 18 18 18 18 18 19 20 20 20 21
31 33 33 34 34 34 35 35 35 34 33 31 30 30 29 29 29 28 26 25 23 22 22 21 20 19 19 18 18 17 17 18 18 18 19 19 18 18 19 19 19 19 20 20
32 32 32 33 32 33 34 34 33 32 31 31 31 30 29 28 28 27 26 25 23 22 21 20 20 19 19 19 18 18 19 19 19 19 19 19 19 19 19 19 20 20 20 20
Wind_Direction
219 218 217 216 211 207 205 205 210 212 219 244 270 288 294 304 315 317 328 336 343 354 358 2 6 8 12 17 16 15 17 18 16 12 14 13 10 0 352 352 349 343 345 346
220 218 215 215 212 207 206 206 210 211 215 235 255 272 281 283 298 311 313 321 325 335 342 351 356 4 7 9 10 12 16 14 12 8 11 17 12 5 355 350 344 341 338 331
220 215 216 216 214 211 211 208 208 210 218 233 248 256 263 270 283 294 304 313 318 323 326 339 348 356 359 360 3 8 12 10 10 9 7 8 4 359 352 343 330 331 335 328
217 214 216 216 215 215 213 211 210 213 223 233 244 250 254 259 269 283 293 302 305 309 312 323 334 341 342 346 352 358 3 2 1 360 360 357 355 354 351 344 336 326 318 316
217 216 218 218 217 217 213 212 215 217 223 229 238 244 248 254 260 270 284 296 297 300 303 307 313 319 326 337 343 345 349 353 354 352 351 350 347 348 343 333 326 322 317 312
216 216 217 217 217 217 214 213 217 221 226 231 235 243 249 256 262 263 274 289 292 289 289 291 296 302 311 323 330 335 338 342 345 344 344 343 342 341 335 332 327 323 310 299
215 216 217 216 216 216 215 215 218 221 225 233 237 244 250 253 255 258 269 279 283 281 283 277 285 293 295 308 317 326 330 332 333 333 332 335 336 336 328 326 328 323 317 304
216 216 218 218 218 219 218 220 222 225 228 232 236 243 246 244 250 259 265 274 284 281 278 273 281 285 283 290 300 311 318 320 319 318 318 323 330 333 331 329 331 330 321 303
216 217 218 219 219 219 219 221 223 226 227 229 232 241 243 245 244 254 269 276 281 282 280 275 282 283 286 286 289 297 307 310 310 309 310 313 316 317 321 323 325 327 309 297
215 216 215 217 217 217 218 219 220 223 224 227 231 240 243 250 252 259 268 277 277 280 282 279 280 281 282 285 286 288 295 300 305 305 304 308 308 308 313 317 317 314 308 301
213 214 213 215 217 216 216 218 221 223 223 225 231 235 239 248 252 257 262 267 270 279 285 283 281 282 285 285 282 280 284 292 297 298 302 303 302 301 302 308 309 305 299 294
212 213 213 216 217 217 218 220 221 220 222 225 231 234 238 244 252 257 261 269 269 277 284 286 287 285 286 288 285 284 282 285 289 293 296 294 298 299 298 300 303 301 295 290
209 213 213 214 215 215 217 218 220 221 223 226 230 233 236 243 252 254 260 266 268 270 274 280 285 286 291 293 290 286 284 285 285 286 289 296 296 298 300 299 296 296 296 293
208 212 213 215 216 216 216 217 219 222 223 226 230 234 236 243 248 254 262 268 266 270 272 276 280 283 287 291 296 296 287 293 293 289 285 288 294 297 298 300 301 298 297 296
206 209 211 213 214 215 215 216 219 222 224 225 227 232 235 241 247 254 257 259 267 269 273 279 281 282 285 287 289 292 290 293 289 291 294 294 295 297 299 303 302 302 301 302
206 208 209 211 214 215 215 214 216 219 222 224 226 229 233 239 246 257 259 264 263 270 273 277 279 282 285 286 285 286 286 290 287 291 298 296 295 298 302 304 305 301 299 299
206 207 207 208 213 216 217 215 215 216 220 222 224 227 231 236 242 253 261 267 261 266 269 274 280 283 284 285 287 289 287 287 285 287 292 293 294 297 303 307 307 299 296 297
207 207 207 207 211 216 217 217 217 217 218 221 223 224 230 237 244 252 262 264 261 262 265 272 277 281 282 283 284 285 285 282 284 286 290 292 293 294 297 303 303 300 297 295
210 209 209 208 211 215 213 215 216 218 219 220 223 226 230 236 244 251 254 258 262 263 268 272 275 277 280 281 282 283 283 281 282 286 289 290 294 295 297 299 299 297 297 296
211 210 210 209 212 215 213 215 217 221 222 222 224 228 232 238 243 249 255 258 263 263 267 270 271 273 276 278 279 280 281 280 281 283 287 288 290 292 294 294 294 293 293 294
213 211 211 211 213 217 217 217 219 222 224 224 225 229 235 241 245 250 256 260 264 269 269 270 272 271 272 274 276 277 279 280 281 284 286 287 289 291 292 292 293 292 293 293
216 213 211 212 214 215 217 218 220 223 225 226 228 232 236 242 245 250 256 261 264 266 270 271 272 270 269 270 273 275 277 279 282 285 286 286 287 289 290 291 292 292 291 291
213 212 211 213 215 214 216 219 221 223 225 226 228 232 235 240 243 249 255 260 263 266 268 270 269 267 267 269 272 274 276 279 282 284 287 287 288 289 287 289 290 291 291 292
213 213 213 214 214 214 216 219 222 224 225 227 228 230 235 240 243 247 252 258 261 263 265 267 264 262 263 267 270 273 275 277 281 284 287 289 289 288 288 289 292 292 293 293
216 216 216 217 216 215 218 221 223 225 227 229 230 232 237 241 244 248 253 257 260 261 262 263 261 260 261 264 269 272 275 279 281 283 286 289 290 291 293 295 296 296 296 296
218 218 219 220 219 220 220 221 225 227 228 227 230 235 240 242 245 248 253 256 257 257 258 259 261 262 262 264 268 272 276 280 280 282 285 288 291 294 296 296 296 297 297 295
Height
5902 5907 5910 5914 5917 5919 5921 5922 5924 5926 5927 5928 5928 5929 5929 5929 5929 5930 5931 5930 5930 5929 5928 5927 5926 5925 5924 5923 5922 5920 5919 5918 5916 5915 5914 5913 5912 5912 5911 5910 5909 5909 5908 5907
5898 5903 5907 5909 5912 5914 5917 5919 5922 5923 5925 5925 5926 5927 5928 5928 5929 5929 5929 5929 5929 5928 5928 5927 5926 5925 5924 5923 5922 5920 5919 5918 5916 5915 5914 5913 5912 5911 5910 5910 5909 5908 5907 5907
5893 5900 5901 5904 5907 5911 5914 5917 5919 5921 5922 5923 5924 5925 5926 5927 5927 5928 5928 5927 5928 5928 5927 5926 5925 5924 5923 5923 5922 5920 5919 5918 5916 5915 5914 5913 5912 5911 5910 5909 5908 5907 5906 5906
5886 5892 5895 5899 5903 5907 5911 5914 5916 5918 5919 5920 5921 5922 5923 5925 5925 5925 5926 5926 5926 5927 5926 5925 5925 5924 5923 5922 5922 5920 5919 5918 5916 5915 5913 5912 5911 5910 5909 5908 5907 5906 5905 5904
5881 5887 5890 5894 5900 5903 5907 5910 5912 5914 5915 5917 5918 5919 5921 5921 5923 5924 5924 5925 5926 5926 5925 5925 5924 5923 5922 5922 5921 5920 5918 5917 5916 5914 5913 5911 5910 5909 5907 5906 5906 5904 5904 5903
5876 5880 5885 5890 5895 5899 5903 5906 5908 5910 5911 5913 5915 5916 5918 5919 5920 5921 5922 5923 5924 5924 5924 5924 5923 5922 5922 5921 5920 5919 5918 5916 5915 5913 5912 5910 5909 5907 5906 5905 5904 5903 5902 5901
5869 5874 5879 5884 5889 5893 5897 5901 5903 5906 5907 5910 5912 5912 5915 5916 5917 5918 5919 5920 5920 5921 5922 5921 5921 5921 5920 5919 5918 5918 5916 5915 5914 5912 5911 5909 5907 5906 5904 5903 5902 5900 5899 5899
5863 5869 5874 5879 5884 5888 5892 5896 5900 5902 5905 5908 5909 5909 5912 5913 5914 5915 5916 5917 5917 5918 5919 5919 5919 5919 5918 5917 5917 5916 5915 5914 5912 5911 5909 5908 5906 5905 5903 5901 5899 5898 5897 5897
5857 5864 5870 5874 5879 5883 5887 5890 5895 5898 5901 5903 5904 5906 5908 5909 5910 5911 5913 5914 5915 5915 5915 5915 5915 5916 5915 5914 5914 5913 5913 5912 5910 5909 5907 5906 5904 5903 5901 5899 5898 5896 5895 5894
5851 5858 5864 5869 5873 5877 5882 5886 5889 5892 5896 5898 5900 5902 5904 5905 5906 5908 5909 5910 5912 5912 5912 5913 5913 5912 5912 5911 5910 5910 5910 5909 5907 5906 5905 5903 5902 5900 5899 5897 5896 5894 5893 5892
5845 5852 5857 5862 5866 5871 5876 5880 5883 5888 5891 5894 5896 5900 5901 5902 5903 5905 5906 5906 5908 5908 5909 5910 5910 5909 5909 5908 5907 5906 5906 5906 5904 5903 5901 5900 5899 5897 5896 5895 5894 5892 5892 5891
5839 5845 5851 5856 5862 5867 5871 5875 5879 5883 5886 5889 5892 5897 5897 5898 5900 5901 5903 5903 5904 5905 5906 5907 5907 5906 5906 5905 5903 5902 5902 5902 5901 5899 5898 5897 5895 5894 5893 5892 5891 5890 5889 5888
5834 5840 5845 5851 5857 5861 5865 5869 5873 5878 5882 5884 5887 5893 5893 5894 5896 5897 5899 5899 5901 5902 5903 5904 5904 5904 5903 5902 5901 5900 5898 5898 5897 5895 5895 5894 5893 5892 5891 5890 5888 5887 5886 5885
5829 5835 5841 5846 5851 5856 5860 5864 5868 5872 5875 5879 5883 5886 5889 5890 5892 5893 5894 5895 5896 5898 5899 5899 5900 5900 5900 5899 5898 5896 5896 5895 5893 5892 5892 5891 5890 5889 5888 5887 5886 5884 5883 5882
5824 5830 5835 5841 5846 5851 5855 5859 5863 5866 5871 5875 5879 5881 5884 5886 5887 5889 5890 5891 5892 5894 5894 5895 5896 5896 5896 5895 5895 5894 5893 5892 5891 5890 5888 5888 5887 5886 5886 5884 5883 5882 5880 5879
5819 5825 5831 5837 5841 5845 5849 5853 5857 5862 5866 5870 5874 5877 5880 5882 5882 5885 5886 5886 5887 5889 5890 5892 5892 5892 5892 5892 5892 5891 5890 5890 5889 5888 5887 5885 5885 5884 5883 5881 5880 5878 5876 5875
5814 5821 5827 5832 5836 5840 5845 5849 5853 5857 5860 5865 5868 5873 5875 5877 5879 5881 5882 5883 5884 5886 5887 5888 5888 5889 5888 5888 5888 5887 5887 5886 5885 5884 5883 5882 5882 5881 5879 5878 5876 5874 5873 5872
5811 5817 5822 5828 5833 5836 5843 5846 5848 5852 5856 5860 5864 5867 5870 5873 5875 5877 5878 5879 5879 5880 5882 5883 5884 5884 5884 5884 5884 5883 5883 5882 5881 5880 5879 5879 5878 5877 5876 5874 5873 5871 5869 5868
5807 5812 5817 5823 5826 5831 5837 5840 5843 5847 5851 5855 5859 5862 5865 5868 5870 5871 5873 5874 5874 5876 5877 5879 5879 5879 5879 5879 5879 5879 5878 5878 5877 5876 5876 5875 5874 5873 5872 5870 5869 5867 5866 5865
5801 5807 5812 5817 5821 5826 5832 5835 5839 5843 5846 5850 5853 5857 5859 5863 5865 5868 5868 5868 5869 5871 5872 5874 5874 5874 5874 5874 5874 5874 5873 5873 5873 5872 5872 5871 5870 5869 5868 5866 5865 5863 5862 5861
5796 5801 5806 5811 5815 5821 5827 5830 5835 5839 5842 5845 5848 5852 5855 5858 5861 5863 5863 5864 5865 5866 5867 5868 5869 5869 5870 5870 5869 5869 5869 5868 5868 5867 5867 5866 5865 5864 5863 5861 5860 5859 5857 5856
5791 5795 5800 5805 5810 5817 5821 5826 5830 5833 5838 5841 5844 5847 5850 5852 5855 5857 5859 5860 5861 5862 5863 5863 5864 5864 5864 5864 5865 5864 5864 5863 5863 5862 5862 5861 5860 5859 5857 5856 5855 5854 5852 5850
5785 5791 5795 5801 5806 5812 5816 5820 5824 5828 5832 5836 5840 5842 5845 5847 5850 5852 5853 5855 5856 5857 5858 5858 5859 5859 5859 5859 5860 5859 5859 5858 5858 5857 5856 5855 5854 5853 5852 5851 5850 5848 5846 5845
5779 5784 5790 5795 5800 5806 5811 5815 5819 5823 5827 5830 5834 5837 5840 5842 5844 5846 5848 5849 5850 5851 5852 5853 5853 5853 5854 5854 5854 5854 5854 5853 5853 5852 5851 5850 5849 5847 5846 5845 5844 5842 5840 5839
5775 5780 5784 5789 5795 5800 5805 5809 5813 5817 5820 5823 5827 5831 5834 5836 5839 5841 5843 5843 5844 5845 5847 5847 5848 5848 5849 5849 5849 5849 5849 5848 5847 5846 5846 5844 5843 5842 5841 5839 5838 5836 5834 5833
5771 5776 5780 5785 5790 5795 5799 5804 5807 5810 5813 5816 5821 5825 5828 5830 5833 5835 5837 5838 5839 5840 5841 5842 5842 5843 5843 5843 5844 5844 5843 5843 5842 5841 5840 5839 5838 5837 5835 5834 5832 5831 5829 5827